Regional Weather Roundup
Issued by NWS Charleston, WV

Home | Current Version | Previous Version | Graphics & Text | Print | Product List | Glossary On
Versions: 1 2 3 4 5 6 7 8 9 10 11 12 13 14 15 16 17 18 19 20 21 22 23 24 25 26 27 28 29 30 31 32 33 34 35 36 37 38 39 40 41 42 43 44 45 46 47 48 49 50
000
ASUS41 KRLX 011410
RWRRLX
West Virginia Regional Weather Roundup
National Weather Service Charleston WV
900 AM EST SUN MAR 01 2015

Note: "fair" indicates few or no clouds below 12,000 feet with no
significant weather and/or obstructions to visibility.

WVZ003-011500-
Northern Panhandle of West Virginia

CITY           SKY/WX    TMP DP  RH WIND       PRES   REMARKS
WHEELING       LGT SNOW  31  29  92 S9        30.38S VSB 3/4
$$

WVZ009-011500-
Northwest West Virginia

CITY           SKY/WX    TMP DP  RH WIND       PRES   REMARKS
PARKERSBURG    LGT SNOW  32  22  66 SE3       30.44R
$$

WVZ006-011500-
Western West Virginia

CITY           SKY/WX    TMP DP  RH WIND       PRES   REMARKS
HUNTINGTON     FRZ RAIN  30  29  96 SW3       30.43R FOG
$$

WVZ015-011500-
West Central West Virginia

CITY           SKY/WX    TMP DP  RH WIND       PRES   REMARKS
CHARLESTON     LGT RAIN  37  33  85 S5        30.42R FOG
$$

WVZ022-031-011500-
North Central West Virginia

CITY           SKY/WX    TMP DP  RH WIND       PRES   REMARKS
CLARKSBURG     CLOUDY    32  22  66 CALM      30.41S
MORGANTOWN     CLOUDY    33  27  78 CALM      30.41R
$$

WVZ025-035-042-045-011500-
Southern West Virginia

CITY           SKY/WX    TMP DP  RH WIND       PRES   REMARKS
BECKLEY        CLOUDY    32  25  75 SE10      30.40S
LOGAN          CLOUDY    37  28  70 CALM      30.36F
BLUEFIELD      CLOUDY    39  28  64 SE7       30.41R
LEWISBURG      MIX PCPN  28  26  92 N6        30.45F
$$

WVZ047-011500-
Northern Mountains of West Virginia

CITY           SKY/WX    TMP DP  RH WIND       PRES   REMARKS
ELKINS         CLOUDY    32  24  72 NW3       30.41S
$$

WVZ052-011500-
Eastern Panhandle of West Virginia

CITY           SKY/WX    TMP DP  RH WIND       PRES   REMARKS
MARTINSBURG    LGT SNOW  24  19  81 SE6       30.55F
PETERSBURG     CLOUDY    27  10  49 CALM      30.52S
$$


USA.gov is the U.S. government's official web portal to all federal, state and local government web resources and services.